Weather Roundup
Issued by NWS Springfield, MO

Home | Current Version | Previous Version | Text Only | Print | Product List | Glossary On
Versions: 1 2 3 4 5 6 7 8 9 10 11 12 13 14 15 16 17 18 19 20 21 22 23 24 25 26 27 28 29 30 31 32 33 34 35 36 37 38 39 40 41 42 43 44 45 46 47 48 49 50
000
NZUS99 KSGF 301559
HRRSGF

HOURLY WEATHER
NATIONAL WEATHER SERVICE SPRINGFIELD MO
1100 AM CDT WED JUL 30 2014

......SGF CWA......

CITY           SKY/WX    TMP DP  RH WIND       PRES   REMARKS
SPRINGFIELD    CLOUDY    72  61  68 SW8       30.11S
JOPLIN         LGT RAIN  69  65  86 CALM      30.12R
WEST PLAINS    CLOUDY    72  61  68 SW6       30.13S
ROLLA          FAIR      70  60  70 CALM      30.11R
OSAGE BEACH    PTSUNNY   70  59  68 CALM      30.11R
BRANSON        LGT RAIN  68  66  94 CALM      30.13S FOG

......SURROUNDING SGF CWA......

CITY           SKY/WX    TMP DP  RH WIND       PRES   REMARKS
CHANUTE        CLOUDY    71  63  75 VRB7      30.12R
PARSONS        CLOUDY    73  64  73 CALM      30.12R
COFFEYVILLE    PTSUNNY   74  65  73 E7        30.09R
EMPORIA        LGT RAIN  66  64  93 NE7       30.14R FOG
SILOAM SPRINGS PTSUNNY   70  63  78 SW7       30.13R
HARRISON AR    CLOUDY    70  67  90 S7        30.13S
NEAR YELLVILLE PTSUNNY   70  64  83 S3        30.12S

......KANSAS AND MISSOURI......

CITY           SKY/WX    TMP DP  RH WIND       PRES   REMARKS
KANSAS CTY INT PTSUNNY   72  60  66 NE5       30.13R
DOWNTOWN KC    FAIR      73  58  59 NE6       30.12R
COLUMBIA       PTSUNNY   76  58  53 N3        30.12R
SEDALIA        FAIR      71  61  70 CALM      30.12R
ST JOSEPH      FAIR      75  59  57 NE5       30.13S
ST LOUIS       PTSUNNY   81  55  40 N5        30.10F
SPIRIT OF STL  PTSUNNY   80  54  40 CALM      30.09F
KIRKSVILLE     FAIR      78  58  49 NE5       30.13R
WICHITA        CLOUDY    71  62  73 SE8       30.11R
TOPEKA         FAIR      71  60  68 NE3       30.14R
OLATHE         FAIR      70  58  65 NE5       30.12R

......TENNESSEE......

CITY           SKY/WX    TMP DP  RH WIND       PRES   REMARKS
MEMPHIS        FAIR      79  55  43 S8        30.13S
NASHVILLE      CLOUDY    77  58  51 VRB5      30.14R

......ARKANSAS.......

CITY           SKY/WX    TMP DP  RH WIND       PRES   REMARKS
FAYETTEVILLE   LGT RAIN  70  68  93 SW9       30.13R
FT SMITH       LGT RAIN  72  69  90 E3        30.12R
LITTLE ROCK    PTSUNNY   80  57  45 S9        30.12S

......OKLAHOMA.......

CITY           SKY/WX    TMP DP  RH WIND       PRES   REMARKS
TULSA          LGT RAIN  72  71  97 SW6       30.09R FOG
PONCA CITY     LGT RAIN  67  65  93 E7        30.09S FOG
MCALESTER      RAIN      71  69  93 VRB6      30.12S FOG
OKLAHOMA CITY  LGT RAIN  69  66  90 SE10G22   30.07R FOG

......IOWA............

CITY           SKY/WX    TMP DP  RH WIND       PRES   REMARKS
DES MOINES     FAIR      77  56  48 VRB6      30.13R
QUAD CITIES    FAIR      75  59  57 W6        30.08S

......ILLINOIS........

CITY           SKY/WX    TMP DP  RH WIND       PRES   REMARKS
QUINCY         FAIR      76  57  51 NW5       30.11S
CHICAGO        FAIR      73  54  51 NW9       30.05R




USA.gov is the U.S. government's official web portal to all federal, state and local government web resources and services.